This demonstration page uses our WeatherBlox Daily Observations layout. Learn more.

38.89511, -77.03637

Hourly Observations for January 13, 2015

Temp ( °F °C ) Dew Point ( °F °C ) Humidity (%) Winds ( mph kmh ) Pressure ( in mb ) Visibility ( mi km ) Precip ( " mm )
12:52 am 00:52 Cloudy 41 5 36 2 81 81 NNW 8 13 30.3 1026 9 14.484096 0.001 0.001
1:34 am 01:34 Cloudy 41 5 36 2 81 81 NNW 9 15 30.3 1026 10 16.09344 0 0
1:52 am 01:52 Cloudy 41 5 34 1 76 76 N 9 15 30.33 1027 10 16.09344 0 0
1:59 am 01:59 Cloudy 41 5 34 1 76 76 N 12 19 30.33 1027 10 16.09344 0 0
2:06 am 02:06 Cloudy 41 5 34 1 76 76 N 12 19 30.33 1027 10 16.09344 0 0
2:46 am 02:46 Cloudy 39 4 28 -2 65 65 N 18 30 30.36 1028 10 16.09344 0 0
2:52 am 02:52 Cloudy 39 4 28 -2 65 65 N 13 20 30.36 1028 10 16.09344 0 0
3:52 am 03:52 Cloudy 39 4 28 -2 65 65 NNE 10 17 30.39 1029 10 16.09344 0 0
4:52 am 04:52 Cloudy 37 3 27 -3 65 65 NNE 15 24 30.39 1029 10 16.09344 0 0
5:52 am 05:52 Cloudy 37 3 27 -3 65 65 N 16 26 30.42 1030 10 16.09344 0 0
6:52 am 06:52 Cloudy 36 2 21 -6 56 56 NNE 17 28 30.48 1032 10 16.09344 0 0
7:52 am 07:52 Mostly Cloudy 36 2 19 -7 52 52 N 20 31 30.5 1033 10 16.09344 0 0
8:52 am 08:52 Mostly Cloudy 36 2 18 -8 48 48 NNE 16 26 30.56 1035 10 16.09344 0 0
9:52 am 09:52 Mostly Cloudy 34 1 16 -9 48 48 NNE 16 26 30.56 1035 10 16.09344 0 0
10:52 am 10:52 Partly Cloudy 34 1 12 -11 41 41 N 16 26 30.59 1036 10 16.09344 0 0
11:52 am 11:52 Mostly Cloudy 34 1 10 -12 38 38 NNE 9 15 30.56 1035 10 16.09344 0 0
12:52 pm 12:52 Cloudy 36 2 12 -11 38 38 N 13 20 30.53 1034 10 16.09344 0 0
1:52 pm 13:52 Cloudy 36 2 12 -11 38 38 N 8 13 30.53 1034 10 16.09344 0 0
2:52 pm 14:52 Cloudy 36 2 10 -12 35 35 N 13 20 30.53 1034 10 16.09344 0 0
3:52 pm 15:52 Mostly Cloudy 34 1 12 -11 41 41 NNE 10 17 30.53 1034 10 16.09344 0 0
4:52 pm 16:52 Mostly Cloudy 34 1 12 -11 41 41 NE 7 11 30.56 1035 10 16.09344 0 0
5:52 pm 17:52 Mostly Cloudy 32 0 12 -11 44 44 NNE 13 20 30.56 1035 10 16.09344 0 0
6:52 pm 18:52 Mostly Cloudy 30 -1 12 -11 47 47 NE 13 20 30.59 1036 10 16.09344 0 0
7:52 pm 19:52 Mostly Cloudy 30 -1 10 -12 43 43 NNE 10 17 30.59 1036 10 16.09344 0 0
8:52 pm 20:52 Mostly Cloudy 30 -1 10 -12 43 43 NNE 9 15 30.56 1035 10 16.09344 0 0
9:52 pm 21:52 Mostly Cloudy 28 -2 10 -12 47 47 NE 9 15 30.56 1035 10 16.09344 0 0
10:52 pm 22:52 Mostly Cloudy 28 -2 10 -12 47 47 NE 10 17 30.53 1034 10 16.09344 0 0
11:52 pm 23:52 Mostly Cloudy 28 -2 10 -12 47 47 NE 7 11 30.53 1034 10 16.09344 0 0

Powered by AerisWeather